AAL1941 KLGA-KDCA

Flight info

Callsign AAL1941
Flight time 0h 40m
Altitude 18000
Route BIGGY Q75 MXE CLIPR3
Aircraft A321/M-SDE3FGHIRWY/LB1

Departure

Time 2026-05-06 00:58
Airport LaGuardia Airport (KLGA)

Arrival

Time 2026-05-06 01:38
Airport Ronald Reagan Washington National Airport (KDCA)
Time Latitude Longitude Altitude Speed Heading
2026-05-06 00:39 40.77544 -73.87132 21 ft 0 kts 302°
2026-05-06 00:49 40.77537 -73.87116 20 ft 4 kts 302°
2026-05-06 00:49 40.77527 -73.87095 20 ft 0 kts 302°
2026-05-06 00:51 40.77527 -73.87096 20 ft 0 kts 305°
2026-05-06 00:51 40.77534 -73.87093 20 ft 1 kts 16°
2026-05-06 00:52 40.77535 -73.87077 20 ft 1 kts 84°
2026-05-06 00:52 40.77536 -73.87066 20 ft 2 kts 84°
2026-05-06 00:52 40.77561 -73.87033 20 ft 6 kts 31°
2026-05-06 00:52 40.77575 -73.87022 22 ft 0 kts 31°
2026-05-06 00:53 40.77576 -73.87021 19 ft 0 kts 31°
2026-05-06 00:53 40.77605 -73.86998 19 ft 9 kts 31°
2026-05-06 00:53 40.77675 -73.86993 14 ft 11 kts 19°
2026-05-06 00:54 40.77728 -73.87036 13 ft 9 kts 302°
2026-05-06 00:54 40.77761 -73.87107 13 ft 9 kts 302°
2026-05-06 00:54 40.77793 -73.87173 16 ft 8 kts 302°
2026-05-06 00:54 40.77829 -73.87249 14 ft 16 kts 303°
2026-05-06 00:55 40.77899 -73.87395 16 ft 17 kts 302°
2026-05-06 00:55 40.77935 -73.87472 17 ft 8 kts 302°
2026-05-06 00:55 40.77983 -73.87573 17 ft 15 kts 302°
2026-05-06 00:55 40.78039 -73.87690 16 ft 15 kts 302°
2026-05-06 00:56 40.78089 -73.87794 19 ft 12 kts 302°
2026-05-06 00:56 40.78146 -73.87859 18 ft 11 kts 343°
2026-05-06 00:56 40.78206 -73.87848 20 ft 8 kts 41°
2026-05-06 00:56 40.78210 -73.87811 18 ft 0 kts 121°
2026-05-06 00:57 40.78203 -73.87796 18 ft 16 kts 122°
2026-05-06 00:57 40.78105 -73.87595 16 ft 66 kts 123°
2026-05-06 00:57 40.77757 -73.86862 14 ft 126 kts 122°
2026-05-06 00:57 40.77231 -73.85748 359 ft 143 kts 124°
2026-05-06 00:58 40.76655 -73.84697 1014 ft 141 kts 139°
2026-05-06 00:58 40.75824 -73.84041 1633 ft 140 kts 163°
2026-05-06 00:58 40.74844 -73.83719 2040 ft 155 kts 167°
2026-05-06 00:58 40.73725 -73.83369 2320 ft 175 kts 171°
2026-05-06 00:59 40.72463 -73.82989 2533 ft 196 kts 175°
2026-05-06 00:59 40.71094 -73.83212 2954 ft 205 kts 209°
2026-05-06 00:59 40.70052 -73.84448 3896 ft 201 kts 226°
2026-05-06 00:59 40.69134 -73.85828 4802 ft 200 kts 228°
2026-05-06 01:00 40.68213 -73.87222 5612 ft 202 kts 229°
2026-05-06 01:00 40.67456 -73.88765 6330 ft 208 kts 251°
2026-05-06 01:00 40.67496 -73.90724 6877 ft 234 kts 284°
2026-05-06 01:00 40.68229 -73.92782 7280 ft 255 kts 286°
2026-05-06 01:01 40.68529 -73.95032 7941 ft 249 kts 261°
2026-05-06 01:01 40.68088 -73.97222 8684 ft 249 kts 249°
2026-05-06 01:01 40.67517 -73.99395 9454 ft 252 kts 249°
2026-05-06 01:01 40.66945 -74.01589 10178 ft 255 kts 250°
2026-05-06 01:02 40.66347 -74.03894 10455 ft 277 kts 250°
2026-05-06 01:02 40.65187 -74.08400 10770 ft 313 kts 250°
2026-05-06 01:02 40.64480 -74.11151 11342 ft 320 kts 251°
2026-05-06 01:02 40.63765 -74.13941 12004 ft 323 kts 251°
2026-05-06 01:03 40.63043 -74.16760 12651 ft 327 kts 251°
2026-05-06 01:03 40.61671 -74.22076 13791 ft 334 kts 251°
2026-05-06 01:03 40.60516 -74.26560 14697 ft 340 kts 251°
2026-05-06 01:03 40.59749 -74.29530 15241 ft 344 kts 251°
2026-05-06 01:04 40.58722 -74.33514 15932 ft 349 kts 251°
2026-05-06 01:04 40.57297 -74.38988 16864 ft 356 kts 251°
2026-05-06 01:04 40.56497 -74.42039 17363 ft 359 kts 251°
2026-05-06 01:04 40.55680 -74.45161 17828 ft 363 kts 251°
2026-05-06 01:05 40.54855 -74.48312 17969 ft 366 kts 251°
2026-05-06 01:05 40.53463 -74.53663 18005 ft 381 kts 251°
2026-05-06 01:05 40.51881 -74.59740 17995 ft 381 kts 251°
2026-05-06 01:05 40.51021 -74.63026 17930 ft 375 kts 251°
2026-05-06 01:06 40.50183 -74.66221 17875 ft 370 kts 251°
2026-05-06 01:06 40.49332 -74.69448 17888 ft 376 kts 250°
2026-05-06 01:06 40.48473 -74.72699 17888 ft 378 kts 250°
2026-05-06 01:06 40.46646 -74.79611 17897 ft 378 kts 251°
2026-05-06 01:07 40.44340 -74.88323 17899 ft 378 kts 250°
2026-05-06 01:07 40.43473 -74.91589 17897 ft 378 kts 250°
2026-05-06 01:07 40.42577 -74.94834 17903 ft 378 kts 247°
2026-05-06 01:07 40.41318 -74.97858 17913 ft 378 kts 236°
2026-05-06 01:08 40.39670 -75.00490 17992 ft 376 kts 229°
2026-05-06 01:08 40.37890 -75.02970 18004 ft 368 kts 228°
2026-05-06 01:08 40.36138 -75.05395 18006 ft 365 kts 228°
2026-05-06 01:08 40.34390 -75.07811 18009 ft 365 kts 228°
2026-05-06 01:09 40.32659 -75.10236 18009 ft 365 kts 229°
2026-05-06 01:09 40.30950 -75.12686 18005 ft 364 kts 229°
2026-05-06 01:09 40.29245 -75.15131 18008 ft 364 kts 229°
2026-05-06 01:09 40.27535 -75.17589 18004 ft 364 kts 229°
2026-05-06 01:10 40.25832 -75.20041 18018 ft 364 kts 229°
2026-05-06 01:10 40.21409 -75.26414 18023 ft 364 kts 229°
2026-05-06 01:10 40.18427 -75.30714 18031 ft 364 kts 229°
2026-05-06 01:10 40.16728 -75.33167 18034 ft 363 kts 229°
2026-05-06 01:11 40.13590 -75.37695 18029 ft 364 kts 229°
2026-05-06 01:11 40.10905 -75.41579 18030 ft 364 kts 229°
2026-05-06 01:11 40.09208 -75.44037 18031 ft 364 kts 229°
2026-05-06 01:11 40.07515 -75.46488 18032 ft 364 kts 229°
2026-05-06 01:12 40.05823 -75.48938 18033 ft 363 kts 229°
2026-05-06 01:12 40.04131 -75.51389 18033 ft 363 kts 229°
2026-05-06 01:12 40.03009 -75.53013 18035 ft 363 kts 229°
2026-05-06 01:12 40.01320 -75.55460 18036 ft 363 kts 229°
2026-05-06 01:13 39.99631 -75.57907 18035 ft 363 kts 229°
2026-05-06 01:13 39.97945 -75.60354 18033 ft 363 kts 229°
2026-05-06 01:13 39.96259 -75.62801 18032 ft 363 kts 229°
2026-05-06 01:13 39.94572 -75.65251 18011 ft 363 kts 229°
2026-05-06 01:14 39.91203 -75.70150 18026 ft 363 kts 229°
2026-05-06 01:14 39.88790 -75.73670 18019 ft 363 kts 229°
2026-05-06 01:14 39.87102 -75.76133 18029 ft 363 kts 229°
2026-05-06 01:15 39.85423 -75.78582 18016 ft 363 kts 229°
2026-05-06 01:15 39.83740 -75.81039 18028 ft 363 kts 229°
2026-05-06 01:15 39.78540 -75.88628 18009 ft 362 kts 229°
2026-05-06 01:15 39.73285 -75.96302 18011 ft 362 kts 230°
2026-05-06 01:16 39.71607 -75.98754 17812 ft 364 kts 230°
2026-05-06 01:16 39.69931 -76.01208 17514 ft 362 kts 230°
2026-05-06 01:16 39.68259 -76.03649 17209 ft 361 kts 230°
2026-05-06 01:16 39.66597 -76.06072 16910 ft 359 kts 230°
2026-05-06 01:17 39.64939 -76.08483 16605 ft 357 kts 230°
2026-05-06 01:17 39.63288 -76.10887 16308 ft 356 kts 230°
2026-05-06 01:17 39.61643 -76.13279 16008 ft 354 kts 230°
2026-05-06 01:17 39.60004 -76.15661 15706 ft 353 kts 230°
2026-05-06 01:18 39.58371 -76.18029 15400 ft 351 kts 230°
2026-05-06 01:18 39.56748 -76.20385 15104 ft 350 kts 230°
2026-05-06 01:18 39.55132 -76.22728 14800 ft 348 kts 230°
2026-05-06 01:18 39.53523 -76.25058 14452 ft 346 kts 230°
2026-05-06 01:19 39.51919 -76.27381 14096 ft 345 kts 230°
2026-05-06 01:19 39.50344 -76.29701 13748 ft 342 kts 233°
2026-05-06 01:19 39.49111 -76.32308 13408 ft 339 kts 242°
2026-05-06 01:19 39.47966 -76.34965 13006 ft 337 kts 241°
2026-05-06 01:20 39.46819 -76.37599 12605 ft 335 kts 242°
2026-05-06 01:20 39.45652 -76.40197 12251 ft 333 kts 237°
2026-05-06 01:20 39.44174 -76.42480 12040 ft 333 kts 226°
2026-05-06 01:20 39.42326 -76.44298 12020 ft 336 kts 215°
2026-05-06 01:21 39.40345 -76.45918 11982 ft 337 kts 216°
2026-05-06 01:21 39.38392 -76.47587 11804 ft 336 kts 217°
2026-05-06 01:21 39.36461 -76.49277 11624 ft 334 kts 217°
2026-05-06 01:21 39.34543 -76.50963 11451 ft 333 kts 217°
2026-05-06 01:22 39.32632 -76.52641 11279 ft 331 kts 217°
2026-05-06 01:22 39.30728 -76.54307 11130 ft 329 kts 217°
2026-05-06 01:22 39.28818 -76.55970 10913 ft 329 kts 217°
2026-05-06 01:22 39.26975 -76.57579 10628 ft 305 kts 216°
2026-05-06 01:23 39.25315 -76.59013 10298 ft 277 kts 217°
2026-05-06 01:23 39.23740 -76.60366 9933 ft 262 kts 216°
2026-05-06 01:23 39.22245 -76.61656 10015 ft 262 kts 217°
2026-05-06 01:23 39.20731 -76.62968 10012 ft 262 kts 217°
2026-05-06 01:24 39.19218 -76.64278 10013 ft 262 kts 216°
2026-05-06 01:24 39.17705 -76.65590 10010 ft 262 kts 216°
2026-05-06 01:24 39.16288 -76.67061 9907 ft 262 kts 224°
2026-05-06 01:24 39.14951 -76.68642 9705 ft 260 kts 224°
2026-05-06 01:25 39.13627 -76.70214 9520 ft 258 kts 224°
2026-05-06 01:25 39.12311 -76.71784 9344 ft 258 kts 224°
2026-05-06 01:25 39.11008 -76.73334 9170 ft 250 kts 224°
2026-05-06 01:25 39.09758 -76.74816 9024 ft 238 kts 224°
2026-05-06 01:26 39.08572 -76.76220 8889 ft 226 kts 224°
2026-05-06 01:26 39.07449 -76.77549 8763 ft 213 kts 224°
2026-05-06 01:26 39.06369 -76.78825 8567 ft 208 kts 224°
2026-05-06 01:26 39.05305 -76.80087 8419 ft 208 kts 224°
2026-05-06 01:27 39.04244 -76.81347 8269 ft 207 kts 224°
2026-05-06 01:27 39.03187 -76.82601 8121 ft 207 kts 224°
2026-05-06 01:27 39.02133 -76.83849 7982 ft 207 kts 224°
2026-05-06 01:27 39.01074 -76.85101 7823 ft 206 kts 224°
2026-05-06 01:28 39.00019 -76.86346 7679 ft 206 kts 224°
2026-05-06 01:28 38.98968 -76.87586 7511 ft 205 kts 225°
2026-05-06 01:28 38.98070 -76.88988 7378 ft 203 kts 238°
2026-05-06 01:28 38.97490 -76.90659 7028 ft 207 kts 251°
2026-05-06 01:29 38.97279 -76.92499 6674 ft 211 kts 265°
2026-05-06 01:29 38.97344 -76.94386 6325 ft 211 kts 267°
2026-05-06 01:29 38.97413 -76.96267 5972 ft 211 kts 266°
2026-05-06 01:29 38.97478 -76.98153 5621 ft 211 kts 266°
2026-05-06 01:30 38.97544 -77.00042 5267 ft 212 kts 267°
2026-05-06 01:30 38.97837 -77.01923 4914 ft 219 kts 283°
2026-05-06 01:30 38.98560 -77.03684 4561 ft 229 kts 298°
2026-05-06 01:30 38.99675 -77.05200 4206 ft 236 kts 309°
2026-05-06 01:31 39.00858 -77.06621 3891 ft 232 kts 309°
2026-05-06 01:31 39.02028 -77.08032 3546 ft 230 kts 309°
2026-05-06 01:31 39.03187 -77.09446 3337 ft 229 kts 307°
2026-05-06 01:31 39.03948 -77.11136 3191 ft 212 kts 274°
2026-05-06 01:32 39.03815 -77.12919 3104 ft 197 kts 241°
2026-05-06 01:32 39.03077 -77.14399 3019 ft 197 kts 230°
2026-05-06 01:32 39.02264 -77.15806 3014 ft 195 kts 230°
2026-05-06 01:32 39.01442 -77.17185 3016 ft 194 kts 229°
2026-05-06 01:33 39.00615 -77.18546 3018 ft 192 kts 224°
2026-05-06 01:33 38.99472 -77.19350 3014 ft 192 kts 191°
2026-05-06 01:33 38.98161 -77.19101 3007 ft 188 kts 160°
2026-05-06 01:33 38.97222 -77.18077 3028 ft 171 kts 135°
2026-05-06 01:34 38.96795 -77.16705 3011 ft 162 kts 115°
2026-05-06 01:34 38.96412 -77.15438 2885 ft 146 kts 131°
2026-05-06 01:34 38.95781 -77.14485 2700 ft 137 kts 149°
2026-05-06 01:34 38.95058 -77.13696 2508 ft 135 kts 149°
2026-05-06 01:35 38.94354 -77.12916 2313 ft 133 kts 147°
2026-05-06 01:35 38.93642 -77.12129 2137 ft 135 kts 146°
2026-05-06 01:35 38.92894 -77.11446 1966 ft 133 kts 155°
2026-05-06 01:35 38.92105 -77.10808 1784 ft 135 kts 152°
2026-05-06 01:36 38.91348 -77.10093 1541 ft 138 kts 140°
2026-05-06 01:36 38.90774 -77.09102 1378 ft 141 kts 122°
2026-05-06 01:36 38.90480 -77.07872 1138 ft 143 kts 110°
2026-05-06 01:36 38.90009 -77.06790 995 ft 137 kts 136°
2026-05-06 01:37 38.89314 -77.05969 828 ft 135 kts 145°
2026-05-06 01:37 38.88596 -77.05183 625 ft 136 kts 142°
2026-05-06 01:37 38.87878 -77.04399 454 ft 135 kts 148°
2026-05-06 01:37 38.87020 -77.03993 268 ft 132 kts 174°
2026-05-06 01:38 38.86107 -77.03871 53 ft 132 kts 177°
2026-05-06 01:38 38.85262 -77.03787 23 ft 100 kts 174°
2026-05-06 01:38 38.84915 -77.03777 23 ft 21 kts 212°